Flag for China Weather past 2 weeks in Guangzhou, Guangdong, China

Now
77 °F

Passing clouds.


Feels Like: 78 °F
Forecast: 75 / 86 °F
Wind: 6 mph from East

Location: Canton Airport

Current Time: Aug 20, 2014 at 8:58:56 PM

Latest Report: Aug 20, 2014 at 8:30 PM


Visibility: 5 mi

Pressure: 29.83 "Hg

Humidity: 94%

Dew point: 75 °F

Location of GuangzhouLocation

Historic Weather in Guangzhou — Graph

°F

Guangzhou temperature yesterday

Maximum temperature yesterday: 90 °F (at 11:30 AM)
Minimum temperature yesterday: 75 °F (at 3:00 PM)
Average temperature yesterday: 82 °F

Past Weeks' High & Low Weather Summary

 TemperatureHumidityPressure
High99 °F (Aug 12, 2:00 PM)100% (Aug 12, 11:30 PM)29.86 "Hg (Aug 12, 11:30 PM)
Low75 °F (Aug 12, 11:00 PM)44% (Aug 11, 2:30 PM)29.47 "Hg (Aug 12, 2:30 PM)
Average85 °F80%29.67 "Hg
* Reported Aug 5 7:00 PM — Aug 20 7:30 PM, Guangzhou, Weather by CustomWeather, © 2014

Note: Actual official high and low records may vary slightly from our data, if they occured in-between our weather recording intervals... More about our weather records

Advertising

Guangzhou weather history for previous 24 hours

 ConditionsComfort  
Time TempWeatherWind HumidityBarometerVisibility
7:30 PM
Aug 20
77 °FLight rain. Mostly cloudy.8 mph94%29.80 "Hg4 mi
7:00 PM77 °FLight rain. Mostly cloudy.6 mph94%29.80 "Hg3 mi
6:30 PM77 °FLight rain. More clouds than sun.3 mph94%29.80 "Hg3 mi
6:00 PM77 °FLight rain. More clouds than sun.1 mph100%29.83 "Hg3 mi
5:30 PM77 °FLight rain. Scattered clouds.3 mph100%29.83 "Hg4 mi
5:00 PM77 °FLight rain. More clouds than sun.3 mph100%29.83 "Hg4 mi
4:30 PM79 °FMore clouds than sun.1 mph94%29.83 "HgN/A
4:00 PM79 °FLight rain. More clouds than sun.6 mph94%29.83 "Hg5 mi
3:30 PM77 °FLight rain. More clouds than sun.3 mph100%29.83 "Hg4 mi
3:00 PM77 °FRain. More clouds than sun.3 mph100%29.80 "Hg2 mi
2:30 PM77 °FRain. More clouds than sun.1 mph94%29.83 "Hg2 mi
2:00 PM77 °FRain. More clouds than sun.1 mph94%29.83 "Hg1 mi
1:30 PM77 °FLight rain. More clouds than sun.3 mph94%29.83 "Hg5 mi
1:00 PM77 °FRain. More clouds than sun.6 mph94%29.83 "Hg2 mi
12:30 PM77 °FRain. More clouds than sun.8 mph94%29.83 "Hg1 mi
12:00 PM79 °FLight rain. More clouds than sun.6 mph89%29.83 "Hg5 mi
11:30 AM79 °FLight rain. More clouds than sun.3 mph94%29.83 "Hg6 mi
10:30 AM79 °FLight rain. More clouds than sun.8 mph89%29.83 "HgN/A
10:00 AM79 °FLight rain. More clouds than sun.8 mph89%29.83 "HgN/A
9:30 AM79 °FLight rain. More clouds than sun.3 mph89%29.83 "Hg4 mi
9:00 AM79 °FLight rain. More clouds than sun.3 mph89%29.83 "Hg4 mi
8:30 AM77 °FLight rain. More clouds than sun.3 mph94%29.83 "Hg3 mi
8:00 AM77 °FLight rain. More clouds than sun.3 mph94%29.80 "Hg5 mi
7:30 AM77 °FLight rain. More clouds than sun.3 mph94%29.80 "Hg4 mi
7:00 AM75 °FLight rain. More clouds than sun.3 mph100%29.80 "Hg4 mi
6:30 AM75 °FLight rain. More clouds than sun.6 mph100%29.77 "Hg3 mi
6:00 AM75 °FSprinkles. Partly cloudy.6 mph100%29.77 "Hg3 mi
5:30 AM75 °FThunderstorms. Partly cloudy.6 mph100%29.77 "Hg3 mi
5:00 AM75 °FStrong thunderstorms. Passing clouds.6 mph100%29.77 "Hg1 mi
4:30 AM75 °FThunderstorms. Passing clouds.6 mph100%29.77 "Hg3 mi
4:00 AM77 °FFog.3 mph94%29.77 "Hg3 mi
3:30 AM77 °FFog.3 mph94%29.77 "Hg3 mi
3:00 AM77 °FFog.3 mph94%29.77 "Hg3 mi
2:30 AM77 °FLight rain. Fog.3 mph94%29.77 "Hg3 mi
2:00 AM77 °FLight rain. Fog.3 mph94%29.77 "Hg3 mi
1:30 AM77 °FLight rain. Fog.1 mph94%29.80 "Hg3 mi
1:00 AM77 °FLight rain. Fog.3 mph94%29.80 "Hg3 mi
12:30 AM77 °FLight rain. Fog.3 mph94%29.80 "Hg3 mi
12:00 AM77 °FLight rain. Mostly cloudy.3 mph94%29.80 "Hg4 mi
11:30 PM
Aug 19
77 °FLight rain. Mostly cloudy.3 mph94%29.80 "Hg5 mi
11:00 PM77 °FLight rain. Passing clouds.3 mph94%29.83 "HgN/A
10:30 PM77 °FPassing clouds.3 mph94%29.83 "HgN/A
10:00 PM77 °FLight rain. Mostly cloudy.3 mph94%29.83 "Hg5 mi
9:30 PM77 °FLight rain. Mostly cloudy.1 mph94%29.83 "Hg4 mi
9:00 PM77 °FLight rain. Overcast.3 mph94%29.80 "Hg4 mi
8:30 PM77 °FSprinkles. Passing clouds.3 mph94%29.77 "Hg4 mi
8:00 PM77 °FSprinkles. Passing clouds.3 mph94%29.77 "Hg4 mi
Weather by CustomWeather, © 2014

See weather overviewHow to use our weather pages